Location: Dannhausen
(51.8650°N, 10.1026°E)
Time: 12:28:51
(UTC+00:00)

SL-16 R/B - Pass Details

Date: 09 April 2020
Orbit: 842 x 846 km, 71.0° (Epoch: 02 June)

Event Time Altitude Azimuth Distance (km) Brightness Sun altitude
Rises 19:43:35 0° 326° (NNW) 3,415 6.7 -14.3°
Reaches altitude 10° 19:47:02 10° 347° (NNW) 2,478 5.3 -14.8°
Maximum altitude 19:50:35 17° 26° (NNE) 2,046 4.3 -15.2°
Drops below altitude 10° 19:54:08 10° 65° (ENE) 2,475 4.3 -15.6°
Enters shadow 19:55:08 - 73° (ENE) 2,716 4.5 -15.8°
